Location: Carnières
(50.1682°N, 3.3474°E)
Time: 21:56:35
(UTC+00:00)

SL-16 R/B - Pass Details

Date: 12 August 2024
Orbit: 842 x 845 km, 71.0° (Epoch: 10 September)

Event Time Altitude Azimuth Distance (km) Brightness Sun altitude
Exits shadow 22:32:01 26° 96° (E) 1,610 3.4 -22.9°
Drops below altitude 10° 22:36:12 10° 49° (NE) 2,474 4.9 -23.2°
Sets 22:39:00 0° 37° (NE) 3,414 5.8 -23.3°
